Tracking 27107 objects as of 22-Mar-2023
HD Live streaming from Space Station
objects crossing your sky now

EKRAN 1

Track EKRAN 1 now!
EKRAN 1 is classified as:


NORAD ID: 9503
Int'l Code: 1976-107A
Perigee: 35,487.0 km
Apogee: 36,072.2 km
Inclination: 6.6 °
Period: 1,435.4 minutes
Semi major axis: 42150 km
RCS: 3.5481 m2 (large)
Launch date: October 26, 1976
Source: Commonwealth of Independent States (former USSR) (CIS)
Launch site: TYURATAM MISSILE AND SPACE COMPLEX (TTMTR)
Your satellite tracking list
Your tracking list is empty




NASA's NSSDC Master Catalog

Two Line Element Set (TLE):
1 09503U 76107A   23080.62899226 -.00000078  00000-0  00000-0 0  9991
2 09503   6.6079 287.1380 0069412 153.3264  34.9949  1.00322238186646
Source of the keplerian elements: AFSPC